Time,TemperatureF,DewpointF,PressureIn,WindDirection,WindDirectionDegrees,WindSpeedMPH,WindSpeedGustMPH,Humidity,HourlyPrecipIn,Conditions,Clouds,dailyrainin,SoftwareType,DateUTC
2013-01-26 00:00:00,23.0,20.0,30.17,SW,232,1.0,6.0,88,0.00,,,0.00,VWS V14.01,2013-01-26 05:00:00,
2013-01-26 00:01:00,23.0,20.0,30.17,WSW,246,0.0,6.0,88,0.00,,,0.00,VWS V14.01,2013-01-26 05:01:00,
2013-01-26 00:02:00,23.0,20.0,30.17,WSW,246,0.0,6.0,88,0.00,,,0.00,VWS V14.01,2013-01-26 05:02:00,
2013-01-26 00:07:00,23.0,20.0,30.17,WSW,248,8.0,8.0,88,0.00,,,0.00,VWS V14.01,2013-01-26 05:07:00,
2013-01-26 00:12:00,23.2,20.2,30.17,SW,216,0.0,8.0,88,0.00,,,0.00,VWS V14.01,2013-01-26 05:12:00,
2013-01-26 00:15:00,23.9,20.6,30.17,SSW,203,1.0,11.0,87,0.00,,OVC100,0.00,VWS V14.01,2013-01-26 05:15:00,
2013-01-26 00:17:00,23.2,19.9,30.17,SSW,206,5.0,7.0,87,0.00,,,0.00,VWS V14.01,2013-01-26 05:17:00,
2013-01-26 00:22:00,23.2,19.9,30.17,SW,230,0.0,6.0,87,0.00,,,0.00,VWS V14.01,2013-01-26 05:22:00,
2013-01-26 00:27:00,23.3,20.0,30.17,WSW,253,2.0,8.0,87,0.00,,,0.00,VWS V14.01,2013-01-26 05:27:00,
2013-01-26 00:30:00,24.1,20.8,30.17,WSW,240,2.0,12.0,87,0.00,,OVC100,0.00,VWS V14.01,2013-01-26 05:30:00,
2013-01-26 00:32:00,23.3,20.0,30.17,SW,223,3.0,7.0,87,0.00,,,0.00,VWS V14.01,2013-01-26 05:32:00,
2013-01-26 00:37:00,23.3,20.0,30.17,WSW,248,8.0,8.0,87,0.00,,,0.00,VWS V14.01,2013-01-26 05:37:00,
2013-01-26 00:42:00,23.5,20.2,30.18,West,274,0.0,8.0,87,0.00,,,0.00,VWS V14.01,2013-01-26 05:42:00,
2013-01-26 00:45:00,24.1,20.8,30.17,WSW,240,6.0,11.0,87,0.00,,OVC100,0.00,VWS V14.01,2013-01-26 05:45:00,
2013-01-26 00:47:00,23.6,20.3,30.17,SSW,206,1.0,7.0,87,0.00,,,0.00,VWS V14.01,2013-01-26 05:47:00,
2013-01-26 00:52:00,23.6,20.3,30.17,SSW,203,5.0,10.0,87,0.00,,,0.00,VWS V14.01,2013-01-26 05:52:00,
2013-01-26 00:57:00,23.6,20.3,30.17,SSW,209,5.0,10.0,87,0.00,,,0.00,VWS V14.01,2013-01-26 05:57:00,
2013-01-26 01:00:00,24.2,20.6,30.17,SSW,202,3.0,9.0,86,0.00,,OVC100,0.00,VWS V14.01,2013-01-26 06:00:00,
2013-01-26 01:02:00,23.8,20.5,30.17,SSW,208,0.0,10.0,87,0.00,,,0.00,VWS V14.01,2013-01-26 06:02:00,
2013-01-26 01:07:00,23.8,20.5,30.16,SSW,206,1.0,7.0,87,0.00,,,0.00,VWS V14.01,2013-01-26 06:07:00,
2013-01-26 01:12:00,23.8,20.5,30.17,SSW,205,8.0,10.0,87,0.00,,,0.00,VWS V14.01,2013-01-26 06:12:00,
2013-01-26 01:15:00,24.4,20.8,30.17,SSW,203,0.0,8.0,86,0.00,,OVC100,0.00,VWS V14.01,2013-01-26 06:15:00,
2013-01-26 01:18:00,23.9,20.6,30.17,WSW,250,0.0,11.0,87,0.00,,,0.00,VWS V14.01,2013-01-26 06:18:00,
2013-01-26 01:23:00,23.9,20.6,30.17,West,271,0.0,7.0,87,0.00,,,0.00,VWS V14.01,2013-01-26 06:23:00,
2013-01-26 01:28:00,24.1,20.8,30.17,SSW,209,8.0,11.0,87,0.00,,,0.00,VWS V14.01,2013-01-26 06:28:00,
2013-01-26 01:30:00,24.5,20.9,30.17,SSW,209,3.0,5.0,86,0.00,,OVC100,0.00,VWS V14.01,2013-01-26 06:30:00,
2013-01-26 01:33:00,24.1,20.8,30.17,South,191,5.0,12.0,87,0.00,,,0.00,VWS V14.01,2013-01-26 06:33:00,
2013-01-26 01:38:00,24.1,20.5,30.17,SW,222,0.0,8.0,86,0.00,,,0.00,VWS V14.01,2013-01-26 06:38:00,
2013-01-26 01:43:00,24.1,20.8,30.17,SW,219,2.0,6.0,87,0.00,,,0.00,VWS V14.01,2013-01-26 06:43:00,
2013-01-26 01:45:00,24.7,20.8,30.17,SW,222,4.0,10.0,85,0.00,,OVC100,0.00,VWS V14.01,2013-01-26 06:45:00,
2013-01-26 01:48:00,24.1,20.5,30.17,SSW,208,0.0,11.0,86,0.00,,,0.00,VWS V14.01,2013-01-26 06:48:00,
2013-01-26 01:53:00,24.2,20.6,30.17,SW,229,0.0,7.0,86,0.00,,,0.00,VWS V14.01,2013-01-26 06:53:00,
2013-01-26 01:58:00,24.2,20.6,30.17,SSW,205,0.0,9.0,86,0.00,,,0.00,VWS V14.01,2013-01-26 06:58:00,
2013-01-26 02:00:00,25.0,20.9,30.17,SW,222,3.0,10.0,84,0.00,,OVC100,0.00,VWS V14.01,2013-01-26 07:00:00,
2013-01-26 02:03:00,24.2,20.6,30.17,SSW,213,0.0,9.0,86,0.00,,OVC049,0.00,VWS V14.01,2013-01-26 07:03:00,
2013-01-26 02:08:00,24.2,20.6,30.17,WSW,257,2.0,8.0,86,0.00,,OVC049,0.00,VWS V14.01,2013-01-26 07:08:00,
2013-01-26 02:13:00,24.4,20.8,30.17,SSW,203,0.0,8.0,86,0.00,,OVC049,0.00,VWS V14.01,2013-01-26 07:13:00,
2013-01-26 02:15:00,25.1,21.0,30.17,South,181,5.0,11.0,84,0.00,,OVC100,0.00,VWS V14.01,2013-01-26 07:15:00,
2013-01-26 02:18:00,24.4,20.8,30.17,SSW,203,0.0,6.0,86,0.00,,OVC049,0.00,VWS V14.01,2013-01-26 07:18:00,
2013-01-26 02:23:00,24.5,20.9,30.17,SW,220,1.0,7.0,86,0.00,,OVC049,0.00,VWS V14.01,2013-01-26 07:23:00,
2013-01-26 02:28:00,24.5,20.9,30.17,SSW,210,0.0,5.0,86,0.00,,OVC049,0.00,VWS V14.01,2013-01-26 07:28:00,
2013-01-26 02:30:00,25.1,21.0,30.17,SSW,210,4.0,12.0,84,0.00,,OVC100,0.00,VWS V14.01,2013-01-26 07:30:00,
2013-01-26 02:33:00,24.5,20.9,30.17,WSW,248,7.0,7.0,86,0.00,,OVC049,0.00,VWS V14.01,2013-01-26 07:33:00,
2013-01-26 02:38:00,24.5,20.6,30.17,SSW,200,6.0,10.0,85,0.00,,OVC049,0.00,VWS V14.01,2013-01-26 07:38:00,
2013-01-26 02:43:00,24.7,20.8,30.17,SSW,208,6.0,10.0,85,0.00,,OVC049,0.00,VWS V14.01,2013-01-26 07:43:00,
2013-01-26 02:45:00,25.3,21.1,30.17,SW,216,7.0,13.0,84,0.00,,OVC100,0.00,VWS V14.01,2013-01-26 07:45:00,
2013-01-26 02:48:00,24.7,20.8,30.17,SW,216,0.0,13.0,85,0.00,,OVC049,0.00,VWS V14.01,2013-01-26 07:48:00,
2013-01-26 02:53:00,24.8,20.9,30.17,WSW,258,6.0,16.0,85,0.00,,OVC049,0.00,VWS V14.01,2013-01-26 07:53:00,
2013-01-26 02:58:00,25.0,20.9,30.17,SSW,203,0.0,14.0,84,0.00,,OVC049,0.00,VWS V14.01,2013-01-26 07:58:00,
2013-01-26 03:00:00,25.3,21.1,30.17,SW,226,5.0,8.0,84,0.00,,OVC100,0.00,VWS V14.01,2013-01-26 08:00:00,
2013-01-26 03:03:00,25.0,20.9,30.17,SW,220,5.0,10.0,84,0.00,,OVC049,0.00,VWS V14.01,2013-01-26 08:03:00,
2013-01-26 03:08:00,25.0,20.9,30.17,SW,217,4.0,12.0,84,0.00,,OVC049,0.00,VWS V14.01,2013-01-26 08:08:00,
2013-01-26 03:13:00,25.0,20.9,30.17,SW,232,11.0,12.0,84,0.00,,OVC049,0.00,VWS V14.01,2013-01-26 08:13:00,
2013-01-26 03:15:00,25.3,21.1,30.18,West,277,0.0,8.0,84,0.00,,OVC100,0.00,VWS V14.01,2013-01-26 08:15:00,
2013-01-26 03:18:00,25.1,21.0,30.17,SW,216,2.0,13.0,84,0.00,,OVC049,0.00,VWS V14.01,2013-01-26 08:18:00,
2013-01-26 03:23:00,25.1,21.0,30.17,SSW,212,6.0,13.0,84,0.00,,OVC049,0.00,VWS V14.01,2013-01-26 08:23:00,
2013-01-26 03:28:00,25.1,21.0,30.17,WSW,258,4.0,12.0,84,0.00,,OVC049,0.00,VWS V14.01,2013-01-26 08:28:00,
2013-01-26 03:30:00,25.4,21.2,30.18,SSW,205,2.0,8.0,84,0.00,,OVC100,0.00,VWS V14.01,2013-01-26 08:30:00,
2013-01-26 03:34:00,25.1,21.0,30.17,SW,222,0.0,12.0,84,0.00,,OVC049,0.00,VWS V14.01,2013-01-26 08:34:00,
2013-01-26 03:39:00,25.3,21.1,30.17,SSW,200,3.0,12.0,84,0.00,,OVC049,0.00,VWS V14.01,2013-01-26 08:39:00,
2013-01-26 03:44:00,25.3,21.1,30.17,SSW,200,11.0,13.0,84,0.00,,OVC049,0.00,VWS V14.01,2013-01-26 08:44:00,
2013-01-26 03:45:00,25.6,21.5,30.18,SW,232,0.0,5.0,84,0.00,,OVC100,0.00,VWS V14.01,2013-01-26 08:45:00,
2013-01-26 03:49:00,25.3,21.1,30.17,SW,227,6.0,13.0,84,0.00,,OVC049,0.00,VWS V14.01,2013-01-26 08:49:00,
2013-01-26 03:54:00,25.3,21.1,30.17,WSW,247,0.0,11.0,84,0.00,,OVC049,0.00,VWS V14.01,2013-01-26 08:54:00,
2013-01-26 03:59:00,25.3,21.1,30.17,SW,219,8.0,8.0,84,0.00,,OVC049,0.00,VWS V14.01,2013-01-26 08:59:00,
2013-01-26 04:00:00,25.7,21.5,30.18,SSW,213,0.0,7.0,84,0.00,,OVC100,0.00,VWS V14.01,2013-01-26 09:00:00,
2013-01-26 04:04:00,25.3,21.1,30.17,WSW,241,0.0,8.0,84,0.00,,OVC047,0.00,VWS V14.01,2013-01-26 09:04:00,
2013-01-26 04:09:00,25.3,21.1,30.18,SW,230,0.0,7.0,84,0.00,,OVC047,0.00,VWS V14.01,2013-01-26 09:09:00,
2013-01-26 04:14:00,25.3,21.1,30.18,WSW,251,0.0,8.0,84,0.00,,OVC047,0.00,VWS V14.01,2013-01-26 09:14:00,
2013-01-26 04:15:00,25.8,21.6,30.18,WSW,250,5.0,6.0,84,0.00,,OVC100,0.00,VWS V14.01,2013-01-26 09:15:00,
2013-01-26 04:19:00,25.4,21.2,30.18,SSW,213,5.0,6.0,84,0.00,,OVC047,0.00,VWS V14.01,2013-01-26 09:19:00,
2013-01-26 04:24:00,25.4,21.2,30.18,SW,224,0.0,10.0,84,0.00,,OVC047,0.00,VWS V14.01,2013-01-26 09:24:00,
2013-01-26 04:29:00,25.4,21.2,30.18,SSW,198,2.0,8.0,84,0.00,,OVC047,0.00,VWS V14.01,2013-01-26 09:29:00,
2013-01-26 04:30:00,25.8,21.6,30.19,SW,236,2.0,11.0,84,0.00,,OVC100,0.00,VWS V14.01,2013-01-26 09:30:00,
2013-01-26 04:34:00,25.4,21.2,30.18,WSW,247,0.0,10.0,84,0.00,,OVC047,0.00,VWS V14.01,2013-01-26 09:34:00,
2013-01-26 04:39:00,25.6,21.5,30.18,WSW,258,5.0,8.0,84,0.00,,OVC047,0.00,VWS V14.01,2013-01-26 09:39:00,
2013-01-26 04:44:00,25.6,21.5,30.18,SW,232,0.0,5.0,84,0.00,,OVC047,0.00,VWS V14.01,2013-01-26 09:44:00,
2013-01-26 04:45:00,25.7,21.5,30.19,SSW,209,0.0,8.0,84,0.00,,OVC100,0.00,VWS V14.01,2013-01-26 09:45:00,
2013-01-26 04:49:00,25.6,21.5,30.18,WSW,243,0.0,5.0,84,0.00,,OVC047,0.00,VWS V14.01,2013-01-26 09:49:00,
2013-01-26 04:54:00,25.7,21.5,30.18,WSW,254,4.0,5.0,84,0.00,,OVC047,0.00,VWS V14.01,2013-01-26 09:54:00,
2013-01-26 04:59:00,25.7,21.5,30.18,SSW,213,0.0,7.0,84,0.00,,OVC047,0.00,VWS V14.01,2013-01-26 09:59:00,
2013-01-26 05:00:00,25.6,21.5,30.19,WSW,254,3.0,10.0,84,0.00,,OVC100,0.00,VWS V14.01,2013-01-26 10:00:00,
2013-01-26 05:04:00,25.8,21.6,30.18,West,261,0.0,7.0,84,0.00,,OVC047,0.00,VWS V14.01,2013-01-26 10:04:00,
2013-01-26 05:09:00,25.8,21.6,30.18,WSW,250,5.0,6.0,84,0.00,,OVC047,0.00,VWS V14.01,2013-01-26 10:09:00,
2013-01-26 05:14:00,25.8,21.6,30.18,SSW,203,1.0,6.0,84,0.00,,OVC047,0.00,VWS V14.01,2013-01-26 10:14:00,
2013-01-26 05:15:00,25.4,21.2,30.20,WSW,253,3.0,6.0,84,0.00,,OVC100,0.00,VWS V14.01,2013-01-26 10:15:00,
2013-01-26 05:19:00,25.8,21.6,30.18,WSW,251,0.0,6.0,84,0.00,,OVC047,0.00,VWS V14.01,2013-01-26 10:19:00,
2013-01-26 05:25:00,25.8,21.6,30.18,WSW,244,0.0,10.0,84,0.00,,OVC047,0.00,VWS V14.01,2013-01-26 10:25:00,
2013-01-26 05:30:00,25.8,21.6,30.19,SW,236,2.0,11.0,84,0.00,,OVC047,0.00,VWS V14.01,2013-01-26 10:30:00,
2013-01-26 05:35:00,25.8,21.6,30.19,SW,236,0.0,11.0,84,0.00,,OVC045,0.00,VWS V14.01,2013-01-26 10:35:00,
2013-01-26 05:40:00,25.8,21.6,30.19,SW,227,5.0,10.0,84,0.00,,OVC045,0.00,VWS V14.01,2013-01-26 10:40:00,
2013-01-26 05:45:00,25.7,21.5,30.19,SSW,208,0.0,8.0,84,0.00,,OVC045,0.00,VWS V14.01,2013-01-26 10:45:00,
2013-01-26 05:50:00,25.7,21.5,30.19,West,272,5.0,8.0,84,0.00,,OVC045,0.00,VWS V14.01,2013-01-26 10:50:00,
2013-01-26 05:55:00,25.6,21.5,30.19,WSW,243,0.0,10.0,84,0.00,,OVC045,0.00,VWS V14.01,2013-01-26 10:55:00,
2013-01-26 06:00:00,25.6,21.5,30.19,West,264,3.0,10.0,84,0.00,,OVC045,0.00,VWS V14.01,2013-01-26 11:00:00,
2013-01-26 06:05:00,25.4,21.2,30.20,WSW,251,2.0,10.0,84,0.00,,OVC044,0.00,VWS V14.01,2013-01-26 11:05:00,
2013-01-26 06:10:00,25.4,21.2,30.20,WNW,282,0.0,8.0,84,0.00,,OVC044,0.00,VWS V14.01,2013-01-26 11:10:00,
2013-01-26 06:15:00,25.4,21.2,30.20,WSW,254,0.0,6.0,84,0.00,,OVC044,0.00,VWS V14.01,2013-01-26 11:15:00,
2013-01-26 06:20:00,25.3,20.9,30.20,WNW,291,0.0,8.0,83,0.00,,OVC044,0.00,VWS V14.01,2013-01-26 11:20:00,
2013-01-26 06:25:00,25.3,21.1,30.21,WSW,247,2.0,7.0,84,0.00,,OVC044,0.00,VWS V14.01,2013-01-26 11:25:00,
2013-01-26 06:30:00,25.1,21.0,30.21,West,261,5.0,8.0,84,0.00,,OVC044,0.00,VWS V14.01,2013-01-26 11:30:00,
2013-01-26 06:35:00,25.1,21.0,30.21,West,280,0.0,8.0,84,0.00,,OVC044,0.00,VWS V14.01,2013-01-26 11:35:00,
2013-01-26 06:40:00,25.0,20.9,30.21,WSW,251,0.0,6.0,84,0.00,,OVC044,0.00,VWS V14.01,2013-01-26 11:40:00,
2013-01-26 06:45:00,24.8,20.7,30.21,West,268,0.0,10.0,84,0.00,,OVC044,0.00,VWS V14.01,2013-01-26 11:45:00,
2013-01-26 06:50:00,24.7,20.6,30.21,WSW,244,0.0,10.0,84,0.00,,OVC044,0.00,VWS V14.01,2013-01-26 11:50:00,
2013-01-26 06:55:00,24.7,20.6,30.21,WSW,248,2.0,8.0,84,0.00,,OVC044,0.00,VWS V14.01,2013-01-26 11:55:00,
2013-01-26 07:00:00,24.5,20.4,30.22,WNW,299,2.0,8.0,84,0.00,,OVC044,0.00,VWS V14.01,2013-01-26 12:00:00,
2013-01-26 07:05:00,24.4,20.3,30.22,SW,222,0.0,12.0,84,0.00,,,0.00,VWS V14.01,2013-01-26 12:05:00,
2013-01-26 07:10:00,24.4,20.3,30.22,WSW,251,1.0,6.0,84,0.00,,,0.00,VWS V14.01,2013-01-26 12:10:00,
2013-01-26 07:15:00,24.2,20.1,30.23,WSW,247,0.0,9.0,84,0.00,,,0.00,VWS V14.01,2013-01-26 12:15:00,
2013-01-26 07:20:00,24.2,20.1,30.23,WSW,241,0.0,9.0,84,0.00,,,0.00,VWS V14.01,2013-01-26 12:20:00,
2013-01-26 07:25:00,24.4,20.3,30.23,SW,224,0.0,4.0,84,0.00,,,0.00,VWS V14.01,2013-01-26 12:25:00,
2013-01-26 07:30:00,24.2,20.1,30.23,SW,226,0.0,6.0,84,0.00,,,0.00,VWS V14.01,2013-01-26 12:30:00,
2013-01-26 07:35:00,24.1,20.0,30.23,WSW,243,0.0,10.0,84,0.00,,,0.00,VWS V14.01,2013-01-26 12:35:00,
2013-01-26 07:40:00,24.1,20.0,30.23,WSW,241,0.0,10.0,84,0.00,,,0.00,VWS V14.01,2013-01-26 12:40:00,
2013-01-26 07:45:00,24.1,20.0,30.24,SW,227,0.0,6.0,84,0.00,,,0.00,VWS V14.01,2013-01-26 12:45:00,
2013-01-26 07:50:00,23.9,19.8,30.24,WSW,250,0.0,5.0,84,0.00,,,0.00,VWS V14.01,2013-01-26 12:50:00,
2013-01-26 07:55:00,24.1,20.0,30.25,SW,233,0.0,4.0,84,0.00,,,0.00,VWS V14.01,2013-01-26 12:55:00,
2013-01-26 08:00:00,23.9,19.8,30.25,West,261,0.0,7.0,84,0.00,,,0.00,VWS V14.01,2013-01-26 13:00:00,
2013-01-26 08:05:00,23.8,19.7,30.25,WSW,247,0.0,6.0,84,0.00,,,0.00,VWS V14.01,2013-01-26 13:05:00,
2013-01-26 08:10:00,23.8,19.7,30.25,West,274,0.0,6.0,84,0.00,,,0.00,VWS V14.01,2013-01-26 13:10:00,
2013-01-26 08:15:00,23.6,19.5,30.26,West,264,0.0,8.0,84,0.00,,,0.00,VWS V14.01,2013-01-26 13:15:00,
2013-01-26 08:20:00,23.5,19.4,30.26,WSW,244,0.0,6.0,84,0.00,,,0.00,VWS V14.01,2013-01-26 13:20:00,
2013-01-26 08:25:00,23.5,19.4,30.27,WSW,243,0.0,4.0,84,0.00,,,0.00,VWS V14.01,2013-01-26 13:25:00,
2013-01-26 08:30:00,24.2,19.5,30.29,West,278,0.0,6.0,82,0.00,,OVC100,0.00,VWS V14.01,2013-01-26 13:30:00,
2013-01-26 08:31:00,23.5,19.4,30.27,West,272,5.0,5.0,84,0.00,,,0.00,VWS V14.01,2013-01-26 13:31:00,
2013-01-26 08:36:00,23.5,19.4,30.27,SW,236,0.0,7.0,84,0.00,,,0.00,VWS V14.01,2013-01-26 13:36:00,
2013-01-26 08:41:00,23.3,19.2,30.27,WSW,250,0.0,5.0,84,0.00,,,0.00,VWS V14.01,2013-01-26 13:41:00,
2013-01-26 08:45:00,24.5,19.8,30.30,West,280,0.0,5.0,82,0.00,,OVC100,0.00,VWS V14.01,2013-01-26 13:45:00,
2013-01-26 08:46:00,23.5,19.4,30.27,West,260,0.0,6.0,84,0.00,,,0.00,VWS V14.01,2013-01-26 13:46:00,
2013-01-26 08:51:00,23.5,19.4,30.28,WSW,250,0.0,6.0,84,0.00,,,0.00,VWS V14.01,2013-01-26 13:51:00,
2013-01-26 08:56:00,23.6,19.2,30.28,WSW,254,0.0,3.0,83,0.00,,,0.00,VWS V14.01,2013-01-26 13:56:00,
2013-01-26 09:00:00,25.6,20.3,30.30,West,278,3.0,7.0,80,0.00,,OVC100,0.00,VWS V14.01,2013-01-26 14:00:00,
2013-01-26 09:01:00,23.6,19.2,30.28,SW,224,0.0,5.0,83,0.00,,,0.00,VWS V14.01,2013-01-26 14:01:00,
2013-01-26 09:06:00,23.8,19.4,30.28,SW,229,0.0,0.0,83,0.00,,,0.00,VWS V14.01,2013-01-26 14:06:00,
2013-01-26 09:11:00,23.9,19.5,30.28,West,277,0.0,3.0,83,0.00,,,0.00,VWS V14.01,2013-01-26 14:11:00,
2013-01-26 09:15:00,26.0,20.7,30.31,WSW,257,0.0,5.0,80,0.00,,OVC100,0.00,VWS V14.01,2013-01-26 14:15:00,
2013-01-26 09:16:00,23.9,19.5,30.28,West,275,0.0,2.0,83,0.00,,,0.00,VWS V14.01,2013-01-26 14:16:00,
2013-01-26 09:21:00,23.9,19.2,30.28,WSW,256,0.0,7.0,82,0.00,,,0.00,VWS V14.01,2013-01-26 14:21:00,
2013-01-26 09:26:00,24.1,19.7,30.29,West,271,0.0,7.0,83,0.00,,,0.00,VWS V14.01,2013-01-26 14:26:00,
2013-01-26 09:30:00,26.4,21.1,30.32,WNW,282,0.0,8.0,80,0.00,,OVC100,0.00,VWS V14.01,2013-01-26 14:30:00,
2013-01-26 09:31:00,24.2,19.5,30.29,West,275,0.0,6.0,82,0.00,,,0.00,VWS V14.01,2013-01-26 14:31:00,
2013-01-26 09:36:00,24.2,19.5,30.29,WSW,258,0.0,5.0,82,0.00,,,0.00,VWS V14.01,2013-01-26 14:36:00,
2013-01-26 09:41:00,24.4,19.7,30.29,West,270,0.0,5.0,82,0.00,,,0.00,VWS V14.01,2013-01-26 14:41:00,
2013-01-26 09:45:00,27.0,21.7,30.32,NW,304,1.0,6.0,80,0.00,,OVC100,0.00,VWS V14.01,2013-01-26 14:45:00,
2013-01-26 09:46:00,24.7,20.0,30.30,West,280,0.0,5.0,82,0.00,,,0.00,VWS V14.01,2013-01-26 14:46:00,
2013-01-26 09:51:00,25.0,20.3,30.30,WNW,291,0.0,5.0,82,0.00,,,0.00,VWS V14.01,2013-01-26 14:51:00,
2013-01-26 09:56:00,25.4,20.4,30.30,WNW,295,0.0,5.0,81,0.00,,,0.00,VWS V14.01,2013-01-26 14:56:00,
2013-01-26 10:00:00,27.5,21.9,30.33,NW,308,0.0,6.0,79,0.00,,OVC100,0.00,VWS V14.01,2013-01-26 15:00:00,
2013-01-26 10:01:00,25.7,20.7,30.30,West,270,0.0,7.0,81,0.00,,,0.00,VWS V14.01,2013-01-26 15:01:00,
2013-01-26 10:06:00,25.8,20.5,30.30,WNW,282,6.0,7.0,80,0.00,,,0.00,VWS V14.01,2013-01-26 15:06:00,
2013-01-26 10:11:00,26.0,21.0,30.31,NW,325,5.0,6.0,81,0.00,,,0.00,VWS V14.01,2013-01-26 15:11:00,
2013-01-26 10:15:00,27.3,21.7,30.33,WNW,285,0.0,10.0,79,0.00,,OVC100,0.00,VWS V14.01,2013-01-26 15:15:00,
2013-01-26 10:16:00,26.0,20.7,30.31,NW,322,0.0,7.0,80,0.00,,,0.00,VWS V14.01,2013-01-26 15:16:00,
2013-01-26 10:21:00,26.1,20.8,30.31,West,275,2.0,8.0,80,0.00,,,0.00,VWS V14.01,2013-01-26 15:21:00,
2013-01-26 10:27:00,26.3,21.0,30.31,WNW,289,0.0,8.0,80,0.00,,,0.00,VWS V14.01,2013-01-26 15:27:00,
2013-01-26 10:30:00,27.9,21.9,30.33,WNW,282,2.0,8.0,78,0.00,,OVC100,0.00,VWS V14.01,2013-01-26 15:30:00,
2013-01-26 10:31:00,26.4,21.1,30.32,WNW,285,0.0,8.0,80,0.00,,,0.00,VWS V14.01,2013-01-26 15:31:00,
2013-01-26 10:37:00,26.7,21.4,30.32,WSW,251,0.0,6.0,80,0.00,,,0.00,VWS V14.01,2013-01-26 15:37:00,
2013-01-26 10:42:00,26.9,21.3,30.32,SW,229,0.0,6.0,79,0.00,,,0.00,VWS V14.01,2013-01-26 15:42:00,
2013-01-26 10:45:00,28.2,22.2,30.34,West,271,2.0,8.0,78,0.00,,OVC100,0.00,VWS V14.01,2013-01-26 15:45:00,
2013-01-26 10:47:00,26.7,21.1,30.32,WNW,301,0.0,6.0,79,0.00,,,0.00,VWS V14.01,2013-01-26 15:47:00,
2013-01-26 10:52:00,27.2,21.9,30.32,NW,322,2.0,7.0,80,0.00,,,0.00,VWS V14.01,2013-01-26 15:52:00,
2013-01-26 10:57:00,27.3,21.7,30.33,West,281,6.0,7.0,79,0.00,,,0.00,VWS V14.01,2013-01-26 15:57:00,
2013-01-26 11:00:00,28.7,22.4,30.34,WNW,296,0.0,11.0,77,0.00,,OVC100,0.00,VWS V14.01,2013-01-26 16:00:00,
2013-01-26 11:02:00,27.5,21.9,30.33,WSW,257,6.0,6.0,79,0.00,,,0.00,VWS V14.01,2013-01-26 16:02:00,
2013-01-26 11:07:00,27.8,22.1,30.33,West,274,6.0,7.0,79,0.00,,,0.00,VWS V14.01,2013-01-26 16:07:00,
2013-01-26 11:12:00,27.3,21.4,30.33,NW,306,5.0,10.0,78,0.00,,,0.00,VWS V14.01,2013-01-26 16:12:00,
2013-01-26 11:15:00,29.3,22.4,30.34,West,274,3.0,10.0,75,0.00,,OVC100,0.00,VWS V14.01,2013-01-26 16:15:00,
2013-01-26 11:17:00,27.5,21.9,30.33,WNW,292,0.0,10.0,79,0.00,,,0.00,VWS V14.01,2013-01-26 16:17:00,
2013-01-26 11:22:00,27.6,22.0,30.33,NW,308,0.0,6.0,79,0.00,,,0.00,VWS V14.01,2013-01-26 16:22:00,
2013-01-26 11:27:00,27.9,22.2,30.33,WNW,288,1.0,7.0,79,0.00,,,0.00,VWS V14.01,2013-01-26 16:27:00,
2013-01-26 11:30:00,29.4,22.1,30.34,WNW,296,5.0,10.0,74,0.00,,OVC100,0.00,VWS V14.01,2013-01-26 16:30:00,
2013-01-26 11:32:00,28.1,22.1,30.33,West,268,0.0,8.0,78,0.00,,,0.00,VWS V14.01,2013-01-26 16:32:00,
2013-01-26 11:37:00,28.1,22.1,30.34,West,274,5.0,7.0,78,0.00,,,0.00,VWS V14.01,2013-01-26 16:37:00,
2013-01-26 11:42:00,28.2,22.2,30.34,NW,318,1.0,8.0,78,0.00,,,0.00,VWS V14.01,2013-01-26 16:42:00,
2013-01-26 11:45:00,29.5,22.2,30.35,WNW,285,7.0,7.0,74,0.00,,OVC100,0.00,VWS V14.01,2013-01-26 16:45:00,
2013-01-26 11:47:00,28.4,22.4,30.34,NNW,339,0.0,7.0,78,0.00,,,0.00,VWS V14.01,2013-01-26 16:47:00,
2013-01-26 11:52:00,28.7,22.7,30.34,West,260,8.0,10.0,78,0.00,,,0.00,VWS V14.01,2013-01-26 16:52:00,
2013-01-26 11:57:00,28.5,22.2,30.34,West,274,3.0,11.0,77,0.00,,,0.00,VWS V14.01,2013-01-26 16:57:00,
2013-01-26 12:00:00,28.8,20.9,30.34,WNW,289,4.0,7.0,72,0.00,,OVC100,0.00,VWS V14.01,2013-01-26 17:00:00,
2013-01-26 12:02:00,28.7,22.1,30.34,WNW,282,4.0,11.0,76,0.00,,,0.00,VWS V14.01,2013-01-26 17:02:00,
2013-01-26 12:07:00,28.8,21.9,30.34,West,281,5.0,11.0,75,0.00,,,0.00,VWS V14.01,2013-01-26 17:07:00,
2013-01-26 12:12:00,29.1,22.5,30.34,NW,305,0.0,10.0,76,0.00,,,0.00,VWS V14.01,2013-01-26 17:12:00,
2013-01-26 12:15:00,28.4,21.2,30.35,North,0,4.0,7.0,74,0.00,,OVC100,0.00,VWS V14.01,2013-01-26 17:15:00,
2013-01-26 12:17:00,29.5,22.6,30.34,WSW,246,7.0,7.0,75,0.00,,,0.00,VWS V14.01,2013-01-26 17:17:00,
2013-01-26 12:22:00,29.3,22.1,30.34,WNW,287,0.0,11.0,74,0.00,,,0.00,VWS V14.01,2013-01-26 17:22:00,
2013-01-26 12:27:00,29.3,22.1,30.34,NW,318,1.0,11.0,74,0.00,,,0.00,VWS V14.01,2013-01-26 17:27:00,
2013-01-26 12:30:00,28.4,20.9,30.34,NNW,336,3.0,7.0,73,0.00,,OVC100,0.00,VWS V14.01,2013-01-26 17:30:00,
2013-01-26 12:32:00,29.4,21.8,30.34,West,260,8.0,10.0,73,0.00,,,0.00,VWS V14.01,2013-01-26 17:32:00,
2013-01-26 12:37:00,29.7,22.1,30.34,NW,320,5.0,10.0,73,0.00,,,0.00,VWS V14.01,2013-01-26 17:37:00,
2013-01-26 12:42:00,29.4,22.1,30.34,WNW,282,0.0,8.0,74,0.00,,,0.00,VWS V14.01,2013-01-26 17:42:00,
2013-01-26 12:45:00,28.1,20.2,30.34,NNW,329,3.0,7.0,72,0.00,,OVC100,0.00,VWS V14.01,2013-01-26 17:45:00,
2013-01-26 12:47:00,29.5,21.9,30.35,WNW,292,0.0,7.0,73,0.00,,,0.00,VWS V14.01,2013-01-26 17:47:00,
2013-01-26 12:52:00,29.3,21.4,30.35,West,268,2.0,8.0,72,0.00,,,0.00,VWS V14.01,2013-01-26 17:52:00,
2013-01-26 12:57:00,29.1,21.2,30.35,NW,325,3.0,8.0,72,0.00,,,0.00,VWS V14.01,2013-01-26 17:57:00,
2013-01-26 13:00:00,28.2,20.7,30.34,NW,305,0.0,4.0,73,0.00,,OVC100,0.00,VWS V14.01,2013-01-26 18:00:00,
2013-01-26 13:02:00,28.7,21.1,30.34,WNW,299,1.0,7.0,73,0.00,,,0.00,VWS V14.01,2013-01-26 18:02:00,
2013-01-26 13:07:00,28.5,21.3,30.35,NW,311,1.0,7.0,74,0.00,,,0.00,VWS V14.01,2013-01-26 18:07:00,
2013-01-26 13:12:00,28.4,21.5,30.35,NNW,330,0.0,7.0,75,0.00,,,0.00,VWS V14.01,2013-01-26 18:12:00,
2013-01-26 13:15:00,28.2,20.0,30.34,NNW,343,1.0,6.0,71,0.00,,OVC100,0.00,VWS V14.01,2013-01-26 18:15:00,
2013-01-26 13:17:00,28.1,20.9,30.35,NW,320,2.0,6.0,74,0.00,,,0.00,VWS V14.01,2013-01-26 18:17:00,
2013-01-26 13:22:00,27.9,20.7,30.35,WNW,289,1.0,6.0,74,0.00,,,0.00,VWS V14.01,2013-01-26 18:22:00,
2013-01-26 13:27:00,28.2,21.0,30.34,West,270,2.0,7.0,74,0.00,,,0.00,VWS V14.01,2013-01-26 18:27:00,
2013-01-26 13:30:00,27.9,19.7,30.34,North,0,7.0,7.0,71,0.00,,OVC100,0.00,VWS V14.01,2013-01-26 18:30:00,
2013-01-26 13:32:00,28.4,20.9,30.34,WNW,289,1.0,7.0,73,0.00,,,0.00,VWS V14.01,2013-01-26 18:32:00,
2013-01-26 13:38:00,28.5,20.6,30.34,NW,318,2.0,7.0,72,0.00,,,0.00,VWS V14.01,2013-01-26 18:38:00,
2013-01-26 13:43:00,28.2,20.4,30.34,NNW,343,3.0,7.0,72,0.00,,,0.00,VWS V14.01,2013-01-26 18:43:00,
2013-01-26 13:45:00,27.8,19.6,30.34,NW,306,2.0,7.0,71,0.00,,OVC100,0.00,VWS V14.01,2013-01-26 18:45:00,
2013-01-26 13:48:00,27.8,20.3,30.34,NW,320,0.0,7.0,73,0.00,,OVC031,0.00,VWS V14.01,2013-01-26 18:48:00,
2013-01-26 13:53:00,27.8,20.3,30.34,NNW,342,2.0,7.0,73,0.00,,OVC031,0.00,VWS V14.01,2013-01-26 18:53:00,
2013-01-26 13:58:00,28.1,20.6,30.34,NW,306,0.0,6.0,73,0.00,,OVC031,0.00,VWS V14.01,2013-01-26 18:58:00,
2013-01-26 14:00:00,27.9,19.4,30.35,NW,323,3.0,7.0,70,0.00,,OVC100,0.00,VWS V14.01,2013-01-26 19:00:00,
2013-01-26 14:03:00,28.4,20.5,30.34,NW,319,2.0,6.0,72,0.00,,OVC034,0.00,VWS V14.01,2013-01-26 19:03:00,
2013-01-26 14:08:00,28.2,20.4,30.34,North,0,0.0,10.0,72,0.00,,OVC034,0.00,VWS V14.01,2013-01-26 19:08:00,
2013-01-26 14:13:00,28.2,20.4,30.34,NW,308,2.0,6.0,72,0.00,,OVC034,0.00,VWS V14.01,2013-01-26 19:13:00,
2013-01-26 14:15:00,27.8,19.0,30.36,NNW,340,0.0,5.0,69,0.00,,OVC100,0.00,VWS V14.01,2013-01-26 19:15:00,
2013-01-26 14:18:00,28.2,20.0,30.34,WNW,298,1.0,6.0,71,0.00,,OVC034,0.00,VWS V14.01,2013-01-26 19:18:00,
2013-01-26 14:23:00,28.2,19.7,30.34,NNW,333,7.0,7.0,70,0.00,,OVC034,0.00,VWS V14.01,2013-01-26 19:23:00,
2013-01-26 14:28:00,28.1,19.9,30.34,NNW,330,3.0,7.0,71,0.00,,OVC034,0.00,VWS V14.01,2013-01-26 19:28:00,
2013-01-26 14:30:00,27.9,19.1,30.37,NNW,347,0.0,6.0,69,0.00,,OVC100,0.00,VWS V14.01,2013-01-26 19:30:00,
2013-01-26 14:33:00,27.9,19.7,30.34,NNW,342,2.0,7.0,71,0.00,,OVC034,0.00,VWS V14.01,2013-01-26 19:33:00,
2013-01-26 14:38:00,27.8,19.6,30.34,NW,320,0.0,7.0,71,0.00,,OVC034,0.00,VWS V14.01,2013-01-26 19:38:00,
2013-01-26 14:43:00,27.8,20.0,30.34,NW,322,2.0,6.0,72,0.00,,OVC034,0.00,VWS V14.01,2013-01-26 19:43:00,
2013-01-26 14:45:00,27.9,18.4,30.38,WNW,292,0.0,5.0,67,0.00,,OVC100,0.00,VWS V14.01,2013-01-26 19:45:00,
2013-01-26 14:48:00,27.8,19.6,30.34,North,354,3.0,7.0,71,0.00,,OVC034,0.00,VWS V14.01,2013-01-26 19:48:00,
2013-01-26 14:53:00,27.8,19.3,30.35,NW,304,0.0,7.0,70,0.00,,OVC034,0.00,VWS V14.01,2013-01-26 19:53:00,
2013-01-26 14:58:00,27.9,19.7,30.35,NNW,339,7.0,7.0,71,0.00,,OVC034,0.00,VWS V14.01,2013-01-26 19:58:00,
2013-01-26 15:00:00,27.6,17.7,30.38,NNW,332,5.0,7.0,66,0.00,,OVC100,0.00,VWS V14.01,2013-01-26 20:00:00,
2013-01-26 15:03:00,27.9,19.4,30.35,NW,322,2.0,7.0,70,0.00,,OVC027,0.00,VWS V14.01,2013-01-26 20:03:00,
2013-01-26 15:08:00,27.8,19.0,30.36,NNW,336,2.0,6.0,69,0.00,,OVC027,0.00,VWS V14.01,2013-01-26 20:08:00,
2013-01-26 15:13:00,27.6,18.8,30.36,NNW,340,0.0,6.0,69,0.00,,OVC027,0.00,VWS V14.01,2013-01-26 20:13:00,
2013-01-26 15:15:00,27.3,17.5,30.39,NNW,333,2.0,5.0,66,0.00,,OVC100,0.00,VWS V14.01,2013-01-26 20:15:00,
2013-01-26 15:18:00,27.8,19.3,30.36,NW,311,3.0,5.0,70,0.00,,OVC027,0.00,VWS V14.01,2013-01-26 20:18:00,
2013-01-26 15:23:00,27.9,19.4,30.37,NNW,333,3.0,5.0,70,0.00,,OVC027,0.00,VWS V14.01,2013-01-26 20:23:00,
2013-01-26 15:28:00,27.9,19.1,30.37,NNW,347,2.0,6.0,69,0.00,,OVC027,0.00,VWS V14.01,2013-01-26 20:28:00,
2013-01-26 15:30:00,27.3,17.5,30.39,NNW,339,2.0,5.0,66,0.00,,OVC100,0.00,VWS V14.01,2013-01-26 20:30:00,
2013-01-26 15:33:00,27.9,19.1,30.37,NW,320,0.0,6.0,69,0.00,,OVC027,0.00,VWS V14.01,2013-01-26 20:33:00,
2013-01-26 15:38:00,27.9,18.7,30.37,NNW,336,0.0,7.0,68,0.00,,OVC027,0.00,VWS V14.01,2013-01-26 20:38:00,
2013-01-26 15:43:00,27.9,18.4,30.38,NW,316,2.0,6.0,67,0.00,,OVC027,0.00,VWS V14.01,2013-01-26 20:43:00,
2013-01-26 15:45:00,27.2,17.0,30.39,NW,323,0.0,5.0,65,0.00,,OVC100,0.00,VWS V14.01,2013-01-26 20:45:00,
2013-01-26 15:48:00,27.8,17.9,30.38,NNW,336,3.0,5.0,66,0.00,,OVC027,0.00,VWS V14.01,2013-01-26 20:48:00,
2013-01-26 15:53:00,27.8,18.3,30.38,North,359,3.0,7.0,67,0.00,,OVC027,0.00,VWS V14.01,2013-01-26 20:53:00,
2013-01-26 15:58:00,27.6,17.7,30.38,North,349,2.0,7.0,66,0.00,,OVC027,0.00,VWS V14.01,2013-01-26 20:58:00,
2013-01-26 16:00:00,27.0,16.8,30.40,NNW,344,0.0,6.0,65,0.00,,OVC100,0.00,VWS V14.01,2013-01-26 21:00:00,
2013-01-26 16:03:00,27.5,17.6,30.38,NW,313,3.0,8.0,66,0.00,,OVC027,0.00,VWS V14.01,2013-01-26 21:03:00,
2013-01-26 16:08:00,27.3,17.5,30.38,NNW,329,0.0,7.0,66,0.00,,OVC027,0.00,VWS V14.01,2013-01-26 21:08:00,
2013-01-26 16:13:00,27.3,17.5,30.38,NNW,329,0.0,5.0,66,0.00,,OVC027,0.00,VWS V14.01,2013-01-26 21:13:00,
2013-01-26 16:15:00,26.9,16.7,30.41,NNW,329,0.0,0.0,65,0.00,,OVC100,0.00,VWS V14.01,2013-01-26 21:15:00,
2013-01-26 16:18:00,27.3,17.5,30.39,NW,318,1.0,6.0,66,0.00,,OVC027,0.00,VWS V14.01,2013-01-26 21:18:00,
2013-01-26 16:23:00,27.3,17.5,30.39,NW,308,0.0,3.0,66,0.00,,OVC027,0.00,VWS V14.01,2013-01-26 21:23:00,
2013-01-26 16:29:00,27.3,17.5,30.39,NNW,339,2.0,4.0,66,0.00,,OVC027,0.00,VWS V14.01,2013-01-26 21:29:00,
2013-01-26 16:30:00,26.9,17.1,30.41,NW,319,0.0,5.0,66,0.00,,OVC100,0.00,VWS V14.01,2013-01-26 21:30:00,
2013-01-26 16:34:00,27.3,17.5,30.39,NNW,347,2.0,5.0,66,0.00,,OVC027,0.00,VWS V14.01,2013-01-26 21:34:00,
2013-01-26 16:39:00,27.2,17.0,30.39,NW,325,4.0,6.0,65,0.00,,OVC027,0.00,VWS V14.01,2013-01-26 21:39:00,
2013-01-26 16:44:00,27.2,17.0,30.39,NW,323,0.0,5.0,65,0.00,,OVC027,0.00,VWS V14.01,2013-01-26 21:44:00,
2013-01-26 16:45:00,26.7,16.9,30.41,NNW,330,0.0,3.0,66,0.00,,OVC100,0.00,VWS V14.01,2013-01-26 21:45:00,
2013-01-26 16:49:00,27.2,17.0,30.39,NNW,330,0.0,5.0,65,0.00,,OVC027,0.00,VWS V14.01,2013-01-26 21:49:00,
2013-01-26 16:54:00,27.0,16.8,30.40,NNW,337,0.0,5.0,65,0.00,,OVC027,0.00,VWS V14.01,2013-01-26 21:54:00,
2013-01-26 16:59:00,27.0,16.8,30.40,NNW,332,0.0,5.0,65,0.00,,OVC027,0.00,VWS V14.01,2013-01-26 21:59:00,
2013-01-26 17:00:00,26.7,16.9,30.42,NNW,332,0.0,0.0,66,0.00,,OVC100,0.00,VWS V14.01,2013-01-26 22:00:00,
2013-01-26 17:04:00,26.9,16.7,30.40,NW,311,5.0,6.0,65,0.00,,OVC027,0.00,VWS V14.01,2013-01-26 22:04:00,
2013-01-26 17:09:00,26.9,16.7,30.40,NNW,329,0.0,5.0,65,0.00,,OVC027,0.00,VWS V14.01,2013-01-26 22:09:00,
2013-01-26 17:14:00,26.9,17.1,30.41,NNW,329,0.0,0.0,66,0.00,,OVC027,0.00,VWS V14.01,2013-01-26 22:14:00,
2013-01-26 17:15:00,26.7,17.2,30.43,NNW,330,0.0,0.0,67,0.00,,OVC100,0.00,VWS V14.01,2013-01-26 22:15:00,
2013-01-26 17:19:00,26.9,17.1,30.41,NNW,329,0.0,0.0,66,0.00,,OVC029,0.00,VWS V14.01,2013-01-26 22:19:00,
2013-01-26 17:24:00,26.9,17.1,30.41,NNW,329,0.0,0.0,66,0.00,,OVC029,0.00,VWS V14.01,2013-01-26 22:24:00,
2013-01-26 17:29:00,26.9,17.1,30.41,NW,319,0.0,5.0,66,0.00,,OVC029,0.00,VWS V14.01,2013-01-26 22:29:00,
2013-01-26 17:30:00,26.6,17.1,30.43,NNW,332,0.0,0.0,67,0.00,,OVC100,0.00,VWS V14.01,2013-01-26 22:30:00,
2013-01-26 17:34:00,26.7,16.9,30.41,NW,320,0.0,5.0,66,0.00,,OVC029,0.00,VWS V14.01,2013-01-26 22:34:00,
2013-01-26 17:39:00,26.7,16.9,30.41,NNW,330,0.0,3.0,66,0.00,,OVC029,0.00,VWS V14.01,2013-01-26 22:39:00,
2013-01-26 17:44:00,26.7,16.9,30.41,NNW,330,0.0,3.0,66,0.00,,OVC029,0.00,VWS V14.01,2013-01-26 22:44:00,
2013-01-26 17:45:00,26.3,16.9,30.44,NNW,332,0.0,0.0,67,0.00,,OVC100,0.00,VWS V14.01,2013-01-26 22:45:00,
2013-01-26 17:49:00,26.7,16.9,30.41,NNW,332,0.0,0.0,66,0.00,,OVC029,0.00,VWS V14.01,2013-01-26 22:49:00,
2013-01-26 17:54:00,26.7,16.9,30.42,NNW,332,0.0,0.0,66,0.00,,OVC029,0.00,VWS V14.01,2013-01-26 22:54:00,
2013-01-26 17:59:00,26.7,16.9,30.42,NNW,330,0.0,0.0,66,0.00,,OVC029,0.00,VWS V14.01,2013-01-26 22:59:00,
2013-01-26 18:00:00,26.1,16.7,30.44,NNW,336,0.0,3.0,67,0.00,,OVC100,0.00,VWS V14.01,2013-01-26 23:00:00,
2013-01-26 18:04:00,26.9,17.1,30.42,NNW,330,0.0,0.0,66,0.00,,OVC027,0.00,VWS V14.01,2013-01-26 23:04:00,
2013-01-26 18:09:00,26.7,16.9,30.42,NNW,330,0.0,0.0,66,0.00,,OVC027,0.00,VWS V14.01,2013-01-26 23:09:00,
2013-01-26 18:14:00,26.7,17.2,30.43,NNW,332,0.0,0.0,67,0.00,,OVC027,0.00,VWS V14.01,2013-01-26 23:14:00,
2013-01-26 18:15:00,26.0,16.6,30.45,NNW,336,0.0,2.0,67,0.00,,OVC100,0.00,VWS V14.01,2013-01-26 23:15:00,
2013-01-26 18:19:00,26.7,17.2,30.43,NNW,332,0.0,1.0,67,0.00,,OVC027,0.00,VWS V14.01,2013-01-26 23:19:00,
2013-01-26 18:24:00,26.6,16.8,30.43,NNW,332,0.0,1.0,66,0.00,,OVC027,0.00,VWS V14.01,2013-01-26 23:24:00,
2013-01-26 18:29:00,26.6,17.1,30.43,NNW,332,0.0,0.0,67,0.00,,OVC027,0.00,VWS V14.01,2013-01-26 23:29:00,
2013-01-26 18:30:00,25.7,16.6,30.46,North,0,2.0,5.0,68,0.00,,OVC100,0.00,VWS V14.01,2013-01-26 23:30:00,
2013-01-26 18:34:00,26.6,16.8,30.43,NNW,332,0.0,0.0,66,0.00,,OVC027,0.00,VWS V14.01,2013-01-26 23:34:00,
2013-01-26 18:39:00,26.4,16.6,30.43,NNW,332,0.0,0.0,66,0.00,,OVC027,0.00,VWS V14.01,2013-01-26 23:39:00,
2013-01-26 18:44:00,26.3,16.9,30.44,NNW,332,0.0,0.0,67,0.00,,OVC027,0.00,VWS V14.01,2013-01-26 23:44:00,
2013-01-26 18:45:00,25.3,16.2,30.46,NNW,335,0.0,6.0,68,0.00,,OVC100,0.00,VWS V14.01,2013-01-26 23:45:00,
2013-01-26 18:49:00,26.3,16.5,30.44,NNW,332,0.0,0.0,66,0.00,,OVC027,0.00,VWS V14.01,2013-01-26 23:49:00,
2013-01-26 18:54:00,26.1,16.7,30.45,NNW,332,0.0,2.0,67,0.00,,OVC027,0.00,VWS V14.01,2013-01-26 23:54:00,
2013-01-26 18:59:00,26.1,16.7,30.44,NNW,336,0.0,3.0,67,0.00,,OVC027,0.00,VWS V14.01,2013-01-26 23:59:00,
2013-01-26 19:00:00,25.1,16.0,30.47,NNW,344,1.0,6.0,68,0.00,,OVC100,0.00,VWS V14.01,2013-01-27 00:00:00,
2013-01-26 19:04:00,26.0,16.6,30.44,NNW,336,0.0,3.0,67,0.00,,OVC027,0.00,VWS V14.01,2013-01-27 00:04:00,
2013-01-26 19:10:00,26.0,16.6,30.44,NNW,336,0.0,0.0,67,0.00,,OVC027,0.00,VWS V14.01,2013-01-27 00:10:00,
2013-01-26 19:15:00,26.0,16.6,30.45,NNW,336,0.0,2.0,67,0.00,,OVC027,0.00,VWS V14.01,2013-01-27 00:15:00,
2013-01-26 19:20:00,25.8,16.4,30.45,NNW,336,0.0,2.0,67,0.00,,OVC027,0.00,VWS V14.01,2013-01-27 00:20:00,
2013-01-26 19:25:00,25.8,16.7,30.46,North,356,4.0,5.0,68,0.00,,OVC027,0.00,VWS V14.01,2013-01-27 00:25:00,
2013-01-26 19:30:00,25.7,16.6,30.46,North,0,3.0,5.0,68,0.00,,OVC027,0.00,VWS V14.01,2013-01-27 00:30:00,
2013-01-26 19:35:00,25.6,16.5,30.46,North,350,3.0,6.0,68,0.00,,OVC027,0.00,VWS V14.01,2013-01-27 00:35:00,
2013-01-26 19:40:00,25.4,16.3,30.46,North,352,3.0,6.0,68,0.00,,OVC027,0.00,VWS V14.01,2013-01-27 00:40:00,
2013-01-26 19:45:00,25.3,16.2,30.46,NNW,335,0.0,6.0,68,0.00,,OVC027,0.00,VWS V14.01,2013-01-27 00:45:00,
2013-01-26 19:50:00,25.3,16.2,30.47,NNW,344,0.0,5.0,68,0.00,,OVC027,0.00,VWS V14.01,2013-01-27 00:50:00,
2013-01-26 19:55:00,25.1,16.0,30.46,NNW,344,0.0,0.0,68,0.00,,OVC027,0.00,VWS V14.01,2013-01-27 00:55:00,
2013-01-26 20:00:00,25.1,16.0,30.47,NNW,344,2.0,6.0,68,0.00,,OVC027,0.00,VWS V14.01,2013-01-27 01:00:00,
2013-01-26 20:05:00,25.0,15.9,30.47,NNW,342,0.0,6.0,68,0.00,,OVC027,0.00,VWS V14.01,2013-01-27 01:05:00,
2013-01-26 20:10:00,25.0,15.9,30.47,NNW,340,3.0,5.0,68,0.00,,OVC027,0.00,VWS V14.01,2013-01-27 01:10:00,
2013-01-26 20:15:00,25.0,16.3,30.47,North,354,0.0,5.0,69,0.00,,OVC027,0.00,VWS V14.01,2013-01-27 01:15:00,
2013-01-26 20:20:00,24.8,16.1,30.47,NNE,16,0.0,5.0,69,0.00,,OVC027,0.00,VWS V14.01,2013-01-27 01:20:00,
2013-01-26 20:25:00,24.7,16.0,30.47,North,353,2.0,5.0,69,0.00,,OVC027,0.00,VWS V14.01,2013-01-27 01:25:00,
2013-01-26 20:30:00,24.5,15.8,30.47,North,353,0.0,5.0,69,0.00,,OVC027,0.00,VWS V14.01,2013-01-27 01:30:00,
2013-01-26 20:35:00,24.5,15.8,30.47,North,357,0.0,5.0,69,0.00,,OVC027,0.00,VWS V14.01,2013-01-27 01:35:00,
2013-01-26 20:40:00,24.4,15.7,30.47,North,350,1.0,6.0,69,0.00,,OVC027,0.00,VWS V14.01,2013-01-27 01:40:00,
2013-01-26 20:45:00,24.4,15.4,30.48,North,350,0.0,6.0,68,0.00,,OVC027,0.00,VWS V14.01,2013-01-27 01:45:00,
2013-01-26 20:50:00,24.4,15.7,30.48,North,8,0.0,5.0,69,0.00,,OVC027,0.00,VWS V14.01,2013-01-27 01:50:00,
2013-01-26 20:55:00,24.2,15.5,30.48,North,0,0.0,4.0,69,0.00,,OVC027,0.00,VWS V14.01,2013-01-27 01:55:00,
2013-01-26 21:00:00,24.2,15.2,30.48,North,354,0.0,5.0,68,0.00,,OVC029,0.00,VWS V14.01,2013-01-27 02:00:00,
2013-01-26 21:06:00,24.1,15.1,30.48,North,350,6.0,7.0,68,0.00,,OVC029,0.00,VWS V14.01,2013-01-27 02:06:00,
2013-01-26 21:11:00,24.1,14.7,30.48,North,349,2.0,9.0,67,0.00,,OVC029,0.00,VWS V14.01,2013-01-27 02:11:00,
2013-01-26 21:15:00,23.6,14.3,30.49,North,356,0.0,3.0,67,0.00,,OVC100,0.00,VWS V14.01,2013-01-27 02:15:00,
2013-01-26 21:16:00,23.9,14.6,30.48,North,356,0.0,6.0,67,0.00,,OVC029,0.00,VWS V14.01,2013-01-27 02:16:00,
2013-01-26 21:21:00,23.9,14.2,30.48,North,350,1.0,7.0,66,0.00,,OVC029,0.00,VWS V14.01,2013-01-27 02:21:00,
2013-01-26 21:26:00,23.9,14.6,30.48,NNW,344,0.0,6.0,67,0.00,,OVC029,0.00,VWS V14.01,2013-01-27 02:26:00,
2013-01-26 21:30:00,23.6,13.9,30.49,NNE,13,0.0,5.0,66,0.00,,OVC100,0.00,VWS V14.01,2013-01-27 02:30:00,
2013-01-26 21:31:00,23.8,14.5,30.48,NNW,336,0.0,4.0,67,0.00,,OVC029,0.00,VWS V14.01,2013-01-27 02:31:00,
2013-01-26 21:36:00,23.8,14.5,30.49,NNW,336,0.0,0.0,67,0.00,,OVC029,0.00,VWS V14.01,2013-01-27 02:36:00,
2013-01-26 21:41:00,23.6,13.9,30.49,NNW,342,0.0,0.0,66,0.00,,OVC029,0.00,VWS V14.01,2013-01-27 02:41:00,
2013-01-26 21:45:00,23.6,13.9,30.49,NNE,18,0.0,0.0,66,0.00,,OVC100,0.00,VWS V14.01,2013-01-27 02:45:00,
2013-01-26 21:46:00,23.6,13.9,30.49,North,354,0.0,4.0,66,0.00,,OVC029,0.00,VWS V14.01,2013-01-27 02:46:00,
2013-01-26 21:51:00,23.6,13.9,30.49,North,354,0.0,2.0,66,0.00,,OVC029,0.00,VWS V14.01,2013-01-27 02:51:00,
2013-01-26 21:56:00,23.6,13.9,30.49,North,354,0.0,0.0,66,0.00,,OVC029,0.00,VWS V14.01,2013-01-27 02:56:00,
2013-01-26 22:00:00,23.3,14.0,30.49,NNE,18,0.0,0.0,67,0.00,,OVC100,0.00,VWS V14.01,2013-01-27 03:00:00,
2013-01-26 22:01:00,23.6,13.9,30.49,North,354,0.0,0.0,66,0.00,,OVC029,0.00,VWS V14.01,2013-01-27 03:01:00,
2013-01-26 22:06:00,23.8,14.1,30.49,North,354,0.0,0.0,66,0.00,,OVC029,0.00,VWS V14.01,2013-01-27 03:06:00,
2013-01-26 22:11:00,23.8,14.5,30.50,North,356,0.0,3.0,67,0.00,,OVC029,0.00,VWS V14.01,2013-01-27 03:11:00,
2013-01-26 22:15:00,22.9,13.6,30.50,NNE,18,0.0,0.0,67,0.00,,OVC100,0.00,VWS V14.01,2013-01-27 03:15:00,
2013-01-26 22:16:00,23.6,14.3,30.49,North,356,0.0,3.0,67,0.00,,OVC029,0.00,VWS V14.01,2013-01-27 03:16:00,
2013-01-26 22:21:00,23.6,13.9,30.50,NNW,335,0.0,3.0,66,0.00,,OVC029,0.00,VWS V14.01,2013-01-27 03:21:00,
2013-01-26 22:26:00,23.6,13.9,30.49,NW,326,0.0,5.0,66,0.00,,OVC029,0.00,VWS V14.01,2013-01-27 03:26:00,
2013-01-26 22:30:00,22.5,13.2,30.50,NNE,18,0.0,0.0,67,0.00,,OVC100,0.00,VWS V14.01,2013-01-27 03:30:00,
2013-01-26 22:31:00,23.6,13.9,30.49,NNE,13,0.0,5.0,66,0.00,,OVC029,0.00,VWS V14.01,2013-01-27 03:31:00,
2013-01-26 22:36:00,23.6,13.9,30.49,NNE,18,0.0,5.0,66,0.00,,OVC029,0.00,VWS V14.01,2013-01-27 03:36:00,
2013-01-26 22:41:00,23.6,13.9,30.49,NNE,18,0.0,5.0,66,0.00,,OVC029,0.00,VWS V14.01,2013-01-27 03:41:00,
2013-01-26 22:45:00,21.9,13.0,30.51,NNE,18,0.0,0.0,68,0.00,,OVC100,0.00,VWS V14.01,2013-01-27 03:45:00,
2013-01-26 22:46:00,23.6,13.9,30.49,NNE,18,0.0,0.0,66,0.00,,OVC029,0.00,VWS V14.01,2013-01-27 03:46:00,
2013-01-26 22:51:00,23.5,14.2,30.49,NNE,18,0.0,0.0,67,0.00,,OVC029,0.00,VWS V14.01,2013-01-27 03:51:00,
2013-01-26 22:56:00,23.5,14.2,30.49,NNE,18,0.0,0.0,67,0.00,,OVC029,0.00,VWS V14.01,2013-01-27 03:56:00,
2013-01-26 23:00:00,21.6,12.7,30.50,NNE,18,0.0,0.0,68,0.00,,OVC100,0.00,VWS V14.01,2013-01-27 04:00:00,
2013-01-26 23:01:00,23.3,14.0,30.49,NNE,18,0.0,0.0,67,0.00,,OVC027,0.00,VWS V14.01,2013-01-27 04:01:00,
2013-01-26 23:06:00,23.2,13.9,30.50,NNE,18,0.0,0.0,67,0.00,,OVC027,0.00,VWS V14.01,2013-01-27 04:06:00,
2013-01-26 23:11:00,23.0,13.7,30.50,NNE,18,0.0,0.0,67,0.00,,OVC027,0.00,VWS V14.01,2013-01-27 04:11:00,
2013-01-26 23:15:00,21.1,12.5,30.50,NNE,18,0.0,0.0,69,0.00,,OVC100,0.00,VWS V14.01,2013-01-27 04:15:00,
2013-01-26 23:16:00,22.7,13.4,30.50,NNE,18,0.0,0.0,67,0.00,,OVC027,0.00,VWS V14.01,2013-01-27 04:16:00,
2013-01-26 23:21:00,22.5,13.2,30.50,NNE,18,0.0,0.0,67,0.00,,OVC027,0.00,VWS V14.01,2013-01-27 04:21:00,
2013-01-26 23:26:00,22.4,13.1,30.50,NNE,18,0.0,0.0,67,0.00,,OVC027,0.00,VWS V14.01,2013-01-27 04:26:00,
2013-01-26 23:30:00,20.2,12.0,30.49,NNE,18,0.0,0.0,70,0.00,,OVC100,0.00,VWS V14.01,2013-01-27 04:30:00,
2013-01-26 23:31:00,22.4,13.1,30.50,NNE,18,0.0,0.0,67,0.00,,SCT027,0.00,VWS V14.01,2013-01-27 04:31:00,
2013-01-26 23:36:00,22.2,12.9,30.51,NNE,18,0.0,0.0,67,0.00,,SCT027,0.00,VWS V14.01,2013-01-27 04:36:00,
2013-01-26 23:41:00,22.1,12.8,30.51,NNE,18,0.0,0.0,67,0.00,,SCT027,0.00,VWS V14.01,2013-01-27 04:41:00,
2013-01-26 23:45:00,19.2,11.7,30.49,NNE,18,0.0,0.0,72,0.00,,OVC100,0.00,VWS V14.01,2013-01-27 04:45:00,
2013-01-26 23:46:00,21.9,13.0,30.51,NNE,18,0.0,0.0,68,0.00,,SCT027,0.00,VWS V14.01,2013-01-27 04:46:00,
2013-01-26 23:51:00,21.8,12.9,30.50,NNE,18,0.0,0.0,68,0.00,,SCT027,0.00,VWS V14.01,2013-01-27 04:51:00,
2013-01-26 23:56:00,21.8,12.9,30.50,NNE,18,0.0,0.0,68,0.00,,SCT027,0.00,VWS V14.01,2013-01-27 04:56:00,